| time (UTC) | temp F | wind direction | speed knots | gust knots | rain 1hr in | rain 24hr in | rain mn in | humidity % | barometer mb |
| 20260503213028 | 73 | 12 | 4.3 | 6.1 | 0.00 | 0.00 | 0.00 | 45 | 1009.0 |
| 20260503211534 | 73 | 12 | 2.6 | 4.3 | 0.00 | 0.00 | 0.00 | 46 | 1009.1 |
| 20260503210020 | 73 | 7 | 3.5 | 7.0 | 0.00 | 0.00 | 0.00 | 45 | 1009.3 |
| 20260503204518 | 72 | 12 | 4.3 | 7.8 | 0.00 | 0.00 | 0.00 | 47 | 1009.6 |
| 20260503203014 | 72 | 32 | 3.5 | 7.8 | 0.00 | 0.00 | 0.00 | 49 | 1009.8 |
| 20260503201513 | 72 | 24 | 4.3 | 7.0 | 0.00 | 0.00 | 0.00 | 48 | 1009.9 |
| 20260503200010 | 71 | 348 | 1.7 | 7.0 | 0.00 | 0.00 | 0.00 | 52 | 1010.1 |
| 20260503194506 | 68 | 126 | 0.9 | 5.2 | 0.00 | 0.00 | 0.00 | 56 | 1010.3 |
| 20260503193005 | 66 | 213 | 1.7 | 3.5 | 0.00 | 0.00 | 0.00 | 61 | 1010.4 |
| 20260503191601 | 64 | 208 | 0.9 | 3.5 | 0.00 | 0.00 | 0.00 | 66 | 1010.5 |
| 20260503184607 | 63 | 284 | 0.0 | 1.7 | 0.00 | 0.00 | 0.00 | 67 | 1010.8 |
| 20260503183057 | 64 | 221 | 0.0 | 5.2 | 0.00 | 0.00 | 0.00 | 66 | 1010.9 |
| 20260503181556 | 65 | 24 | 2.6 | 7.0 | 0.00 | 0.00 | 0.00 | 62 | 1011.0 |
| 20260503180049 | 63 | 35 | 0.9 | 3.5 | 0.00 | 0.00 | 0.00 | 67 | 1011.0 |
| 20260503174604 | 62 | 285 | 0.0 | 0.0 | 0.00 | 0.00 | 0.00 | 70 | 1011.1 |
| 20260503173050 | 60 | 286 | 0.0 | 1.7 | 0.00 | 0.00 | 0.00 | 74 | 1011.3 |
| 20260503171548 | 60 | 200 | 2.6 | 6.1 | 0.00 | 0.00 | 0.00 | 71 | 1011.3 |
| 20260503081509 | 57 | 19 | 0.0 | 0.0 | 0.00 | 0.00 | 0.00 | 77 | 1011.1 |
| 20260503071559 | 59 | 42 | 0.0 | 0.0 | 0.00 | 0.00 | 0.00 | 73 | 1011.0 |
| 20260503054555 | 60 | 359 | 1.7 | 3.5 | 0.00 | 0.00 | 0.00 | 69 | 1010.6 |
| 20260503053054 | 61 | 33 | 1.7 | 6.1 | 0.00 | 0.00 | 0.00 | 67 | 1010.7 |
| 20260503051554 | 62 | 344 | 0.9 | 3.5 | 0.00 | 0.00 | 0.00 | 67 | 1010.7 |
| 20260503050054 | 61 | 116 | 2.6 | 5.2 | 0.00 | 0.00 | 0.00 | 67 | 1010.7 |
| 20260503044653 | 61 | 202 | 1.7 | 3.5 | 0.00 | 0.00 | 0.00 | 67 | 1010.5 |
| 20260503043052 | 62 | 134 | 2.6 | 4.3 | 0.00 | 0.00 | 0.00 | 67 | 1010.6 |
| 20260503041553 | 63 | 323 | 0.9 | 3.5 | 0.00 | 0.00 | 0.00 | 67 | 1010.5 |
| 20260503040054 | 64 | 40 | 0.0 | 2.6 | 0.00 | 0.00 | 0.00 | 64 | 1010.3 |
| 20260503034606 | 65 | 15 | 0.9 | 9.6 | 0.00 | 0.00 | 0.00 | 61 | 1010.1 |
| 20260503033055 | 62 | 314 | 0.9 | 8.7 | 0.00 | 0.00 | 0.00 | 69 | 1009.9 |
| 20260503031553 | 63 | 354 | 1.7 | 4.3 | 0.00 | 0.00 | 0.00 | 68 | 1009.8 |
| 20260503030050 | 68 | 32 | 0.0 | 0.0 | 0.00 | 0.00 | 0.00 | 59 | 1009.7 |
| 20260503024551 | 67 | 32 | 0.0 | 1.7 | 0.00 | 0.00 | 0.00 | 59 | 1009.7 |
| 20260503023048 | 68 | 15 | 0.0 | 6.1 | 0.00 | 0.00 | 0.00 | 56 | 1009.8 |
| 20260503021548 | 70 | 3 | 0.0 | 4.3 | 0.00 | 0.00 | 0.00 | 57 | 1009.8 |
| 20260503020047 | 69 | 175 | 0.0 | 2.6 | 0.00 | 0.00 | 0.00 | 58 | 1009.9 |
| 20260503014550 | 68 | 126 | 0.0 | 0.0 | 0.00 | 0.00 | 0.00 | 55 | 1010.0 |
| 20260503013042 | 70 | 10 | 0.0 | 0.0 | 0.00 | 0.00 | 0.00 | 53 | 1010.1 |
| 20260503011540 | 71 | 9 | 2.6 | 4.3 | 0.00 | 0.00 | 0.00 | 49 | 1010.1 |
| 20260503010039 | 71 | 356 | 0.0 | 2.6 | 0.00 | 0.00 | 0.00 | 50 | 1010.2 |
| 20260503004538 | 70 | 354 | 0.0 | 1.7 | 0.00 | 0.00 | 0.00 | 52 | 1010.4 |
| 20260503003047 | 69 | 11 | 1.7 | 4.3 | 0.00 | 0.00 | 0.00 | 54 | 1010.5 |
| 20260503001548 | 68 | 10 | 0.0 | 0.9 | 0.00 | 0.00 | 0.00 | 58 | 1010.6 |
| 20260503000029 | 69 | 15 | 2.6 | 4.3 | 0.00 | 0.00 | 0.00 | 57 | 1010.7 |
| 20260502234524 | 71 | 344 | 0.0 | 0.0 | 0.00 | 0.00 | 0.00 | 53 | 1010.8 |
| 20260502233023 | 70 | 233 | 0.0 | 0.0 | 0.00 | 0.00 | 0.00 | 53 | 1011.0 |
| 20260502231514 | 70 | 232 | 0.0 | 2.6 | 0.00 | 0.00 | 0.00 | 54 | 1011.1 |
| 20260502230010 | 72 | 35 | 1.7 | 3.5 | 0.00 | 0.00 | 0.00 | 49 | 1011.4 |
| 20260502224506 | 70 | 292 | 0.0 | 0.0 | 0.00 | 0.00 | 0.00 | 56 | 1011.6 |
| 20260502223010 | 65 | 293 | 0.0 | 0.0 | 0.00 | 0.00 | 0.00 | 63 | 1011.9 |
| 20260502221600 | 65 | 294 | 0.0 | 2.6 | 0.00 | 0.00 | 0.00 | 65 | 1012.1 |
| 20260502220059 | 67 | 290 | 3.5 | 4.3 | 0.00 | 0.00 | 0.00 | 59 | 1012.2 |
| 20260502214603 | 67 | 296 | 1.7 | 3.5 | 0.00 | 0.00 | 0.00 | 61 | 1012.3 |